Вернуться в каталог

FOSSASAT2E26

АктивенЛюбительское радиоSSO
NORAD 69899·PAYLOAD·🇺🇸 United States

Запущен Jul 7, 2026 с Vandenberg Space Force Base

Loading…

Ближайшие Пролёты (ближайшие 24 часа)

TLE

СвежийSource: Space-Track

Эпоха: Sep 14, 2026, 12:31 UTC

1 69899U 26156AG  26257.52200033  .00001459  00000-0  15199-3 0  9995
2 69899  97.7426 156.7430 0003254 263.2918  96.7930 14.91302114 10314

Отслеживайте FOSSASAT2E26 в реальном времени с AllMySat

Download on the App Store